• Processing (Info)

  • MPEC 2014-A19 : 2014 AF5

    The following Minor Planet Electronic Circular may be linked-to from your own Web pages, but must not otherwise be redistributed electronically.

    A form allowing access to any MPEC is at the bottom of this page.


    Read MPEC 2014-A18 Read MPEC 2014-A20


    M.P.E.C. 2014-A19                                Issued 2014 Jan. 4, 00:35 UT
    
         The Minor Planet Electronic Circulars contain information on unusual
             minor planets and routine data on comets.  They are published
       on behalf of Commission 20 of the International Astronomical Union by the
              Minor Planet Center, Smithsonian Astrophysical Observatory,
                              Cambridge, MA 02138, U.S.A.
    
                 Prepared using the Tamkin Foundation Computer Network
    
                                  MPC@CFA.HARVARD.EDU
                URL http://www.minorplanetcenter.net/    ISSN 1523-6714
    
                                       2014 AF5
    
    Observations:
         K14A05F* C2014 01 02.25520 07 24 09.17 +44 13 45.9          18.9 VqEA019703
         K14A05F  C2014 01 02.26175 07 24 09.65 +44 09 04.7          18.3 VqEA019703
         K14A05F  C2014 01 02.27486 07 24 10.24 +43 59 50.6          18.5 VqEA019703
         K14A05F  C2014 01 02.30912 07 24 10.31 +43 36 59.9          18.5 VqEA019703
         K14A05F  C2014 01 02.30951 07 24 10.32 +43 36 43.4          18.6 VqEA019703
         K14A05F  C2014 01 02.30990 07 24 10.37 +43 36 29.6          18.4 VqEA019703
         K14A05F  C2014 01 02.31028 07 24 10.41 +43 36 15.0          18.3 VqEA019703
         K14A05F  C2014 01 02.31067 07 24 10.36 +43 36 00.1          18.5 VqEA019703
         K14A05F  C2014 01 02.35256 07 24 09.38 +43 10 18.4          18.4 VqEA019703
         K14A05F  C2014 01 02.35294 07 24 09.39 +43 10 03.5          18.6 VqEA019703
         K14A05F  C2014 01 02.35333 07 24 09.38 +43 09 50.3          18.6 VqEA019703
         K14A05F  C2014 01 02.35372 07 24 09.26 +43 09 36.3          18.3 VqEA019703
         K14A05F  C2014 01 02.41440 07 24 10.39 +42 35 55.0          18.9 VqEA019703
         K14A05F  C2014 01 02.41484 07 24 10.38 +42 35 41.2          18.6 VqEA019703
         K14A05F  C2014 01 02.41527 07 24 10.50 +42 35 27.6          18.3 VqEA019703
         K14A05F  C2014 01 02.41570 07 24 10.46 +42 35 14.5          18.7 VqEA019703
         K14A05F  C2014 01 03.34122 07 28 51.30 +39 16 46.9          20.5 VqEA019G96
         K14A05F  C2014 01 03.34729 07 28 50.18 +39 16 11.5          20.5 VqEA019G96
         K14A05F  C2014 01 03.35337 07 28 49.04 +39 15 34.7          20.7 VqEA019G96
         K14A05F KC2014 01 03.35658807 28 33.37 +39 13 17.7          20.5 VuEA019H21
         K14A05F KC2014 01 03.36210907 28 32.78 +39 12 41.5          20.5 VuEA019H21
         K14A05F KC2014 01 03.36891307 28 32.11 +39 11 55.8          20.6 VuEA019H21
         K14A05F  C2014 01 03.38793 07 28 43.16 +39 12 05.5          20.4 VqEA019703
         K14A05F  C2014 01 03.38963 07 28 42.80 +39 11 54.9          20.1 VqEA019703
         K14A05F  C2014 01 03.39133 07 28 42.39 +39 11 43.3          20.9 VqEA019703
    
    Observer details:
    703 Catalina Sky Survey.  Observer A. Boattini.  Measurers A. Boattini,
        E. J. Christensen, A. R. Gibbs, A. D. Grauer, R. E. Hill, J. A. Johnson,
        R. A. Kowalski, S. M. Larson, F. C. Shelly.  0.68-m Schmidt + CCD.
    G96 Mt. Lemmon Survey.  Observer E. J. Christensen.  Measurers A. Boattini,
        E. J. Christensen, A. R. Gibbs, A. D. Grauer, R. E. Hill, J. A. Johnson,
        R. A. Kowalski, S. M. Larson, F. C. Shelly.  1.5-m reflector + CCD.
    H21 Astronomical Research Observatory, Westfield.  Observer R. Holmes.
        Measurers T. Vorobjov, L. Buzzi, S. Foglia, T. Linder.  0.61-m f/4.5
        astrograph + CCD.
    
    Orbital elements:
    2014 AF5                                                 Earth MOID = 0.0007 AU
    Epoch 2013 Nov. 4.0 TT = JDT 2456600.5                  MPC
    M 354.07494              (2000.0)            P               Q
    n   0.52052734     Peri.  287.74722     +0.87158859     -0.47429491
    a   1.5305247      Node   100.72222     +0.48386876     +0.79164550
    e   0.5091261      Incl.    7.25065     +0.07876770     +0.38515157
    P   1.89           H   28.8           G   0.15           U   6
    Residuals in seconds of arc
    140102 703  0.4-  1.9-    140102 703  0.3+  0.4-    140103 G96  0.0   0.3-
    140102 703  0.2-  0.4+    140102 703  0.3+  0.1+    140103 H21  0.0   0.3-
    140102 703  0.2-  0.3+    140102 703  0.9-  0.1-    140103 H21  0.0   0.2+
    140102 703  0.4-  0.8+    140102 703  0.0   0.5-    140103 H21  0.2+  0.2-
    140102 703  0.2-  0.7-    140102 703  0.4-  0.4-    140103 703  0.9+  0.7+
    140102 703  0.4+  0.5+    140102 703  0.6+  0.5-    140103 703  0.2-  0.6+
    140102 703  0.9+  0.6+    140102 703  0.2-  0.1-    140103 703  1.8-  0.4-
    140102 703  0.4+  0.6+    140103 G96  0.4+  0.4-
    140102 703  0.2+  1.1+    140103 G96  0.4+  0.2+
    
    Ephemeris:
    2014 AF5                 a,e,i = 1.53, 0.51, 7                   q = 0.7513
    Date    TT    R. A. (2000) Decl.     Delta      r     Elong.  Phase     V
    2013 12 05    19 15 34.9 -36 59 22   0.2432  0.8000    35.5   134.4    31.4
    ...
    2013 12 20    19 28 07.7 -37 55 59   0.1062  0.8889    25.2   151.9    32.5
    ...
    2013 12 28    19 30 26.8 -37 37 30   0.03874 0.9471    19.7   159.5    32.4
    ...
    2014 01 03    07 28 08.2 +39 56 45   0.01101 0.9938   161.4    18.4    19.9
    2014 01 04    07 29 42.4 +38 30 15   0.01930 1.0018   162.9    16.8    21.1
    2014 01 05    07 30 18.2 +37 55 02   0.02760 1.0098   163.6    15.9    21.9
    ...
    2014 01 11    07 31 05.0 +36 53 51   0.07786 1.0588   165.0    13.9    24.2
    ...
    2014 01 19    07 31 28.8 +36 16 46   0.1472  1.1253   162.7    15.1    25.7
    ...
    2014 02 03    07 34 53.3 +34 57 07   0.2894  1.2499   152.8    21.2    27.6
    
    A. U. Tomatic                (C) Copyright 2014 MPC           M.P.E.C. 2014-A19
    

    Read MPEC 2014-A18 Read MPEC 2014-A20


    MPEC number:

    Enter an MPEC number in one of the following forms:

    • 1997-B01 (the full form)
    • J97B01 (the packed version of the full form)
    • B01 (the abbreviated form)